Probability
11 9 5 2 1 0 1 2 2 1 1 2 3 3 2 1 0 0 0 0 0 0 0 0 0 0 0 0 0 0 0 0 0 0 0 0 0 1 1 1 0 0 0
9 8 5 3 3 2 2 3 3 3 3 4 5 4 2 0 0 0 1 1 1 0 0 0 0 0 0 0 0 0 0 0 0 0 0 0 0 1 2 2 1 0 0
5 5 5 5 5 5 5 5 5 4 5 5 6 5 3 1 0 1 2 2 2 1 1 0 0 0 0 1 1 1 0 0 0 0 0 0 0 1 2 2 1 0 0
2 3 4 5 6 6 6 7 6 5 4 4 5 5 4 1 0 1 1 2 2 3 2 1 0 0 0 0 0 0 0 0 0 0 0 0 0 0 1 1 0 0 0
3 3 4 6 6 6 6 7 7 6 5 5 5 4 4 2 0 0 0 0 1 3 3 2 1 0 0 0 0 0 0 0 0 0 0 0 0 0 0 0 0 0 0
5 5 6 6 6 6 6 6 6 7 8 9 7 6 4 2 0 0 0 0 0 2 3 3 2 0 0 0 0 0 0 0 0 0 0 0 0 1 0 0 0 0 0
7 7 6 6 6 6 6 6 8 10 12 14 12 9 6 3 1 0 0 0 0 1 2 3 2 1 0 0 0 0 0 0 0 0 0 0 0 1 1 1 1 0 0
8 8 7 7 7 8 10 12 15 17 17 17 15 11 8 5 1 0 0 0 0 1 2 3 3 2 1 0 0 0 0 0 0 0 0 0 0 1 2 2 1 0 0
10 10 10 10 10 11 15 18 22 23 20 17 14 11 10 8 3 0 0 0 0 1 2 3 3 2 1 0 0 0 0 0 0 0 0 0 0 1 1 1 1 0 0
12 13 14 15 16 17 19 22 25 24 21 17 13 12 13 11 6 1 0 0 0 1 3 3 2 1 0 0 0 0 0 0 0 0 0 0 0 0 0 0 0 0 0
17 17 19 21 20 20 22 26 29 26 22 18 14 13 13 11 6 1 0 0 0 1 2 3 1 0 0 0 0 0 0 0 0 0 0 0 0 0 0 0 0 0 0
25 24 25 26 24 22 25 31 34 30 22 18 15 11 11 10 6 2 0 0 0 0 1 2 1 0 0 0 0 0 0 0 0 0 0 0 0 0 0 1 1 1 0
35 33 32 33 30 29 29 29 30 27 20 15 12 8 8 11 10 6 3 1 0 0 0 0 0 0 0 0 0 0 0 0 0 0 0 0 0 0 1 2 2 2 1
41 38 34 33 32 34 33 28 25 23 18 14 11 8 7 10 12 10 5 2 0 0 0 0 0 0 0 0 0 0 0 0 0 0 0 0 0 0 1 2 3 2 2
40 36 30 25 24 30 32 28 24 20 15 11 9 6 5 5 6 5 3 1 0 0 0 0 0 0 0 0 0 0 0 0 0 0 0 0 0 0 1 1 1 2 2
36 31 24 17 16 19 23 21 16 10 6 4 4 3 2 1 1 0 0 0 0 0 0 0 0 0 0 0 0 0 0 0 0 0 0 0 0 0 0 0 0 1 1
35 28 18 13 11 12 12 11 8 6 4 2 0 0 0 0 0 0 0 0 0 0 0 0 0 0 0 0 0 0 1 1 1 0 0 0 0 0 0 0 0 0 0
32 23 17 14 12 9 6 6 7 9 9 6 3 1 0 0 0 0 0 0 0 0 0 0 0 0 0 0 0 0 1 2 1 0 0 0 0 0 0 0 0 0 0
25 18 14 14 10 6 3 2 3 6 9 8 6 4 1 0 0 0 0 0 0 0 0 0 0 0 0 0 0 0 1 1 1 0 0 0 0 0 0 0 0 0 0
17 11 7 7 5 3 1 0 0 2 4 6 7 5 1 0 0 0 1 0 0 0 0 0 0 0 0 0 0 0 0 0 0 0 0 0 0 0 0 0 0 0 0
12 7 2 1 1 0 0 0 0 1 3 5 5 3 1 0 0 1 2 2 1 1 1 1 0 0 0 0 0 0 0 0 0 0 0 0 0 0 0 0 0 0 0
9 6 2 0 0 0 0 0 0 1 2 3 3 1 0 0 1 2 2 2 2 3 2 1 0 0 0 0 0 0 0 0 0 0 0 0 0 0 0 0 0 0 0
4 2 1 0 0 0 0 0 0 1 2 2 1 1 1 1 2 2 2 2 3 3 2 2 1 0 0 0 0 0 0 0 0 0 0 0 0 0 0 0 0 0 0
1 0 0 0 0 0 0 0 0 0 1 1 1 2 2 1 1 1 2 3 2 1 1 1 1 0 0 0 0 0 0 0 0 0 0 0 0 0 0 0 0 0 0
0 0 0 0 0 0 0 0 0 0 1 1 2 2 2 1 0 1 2 2 1 0 0 0 0 0 0 0 0 0 0 0 0 0 0 0 0 0 0 0 0 0 0
0 0 0 0 0 0 0 0 1 1 2 3 3 2 1 0 0 0 1 0 0 0 0 0 0 0 0 0 0 0 0 0 0 0 0 0 0 0 0 0 0 0 0
Wind_Speed
4 3 1 2 2 2 3 4 4 4 4 4 5 5 5 6 6 5 6 7 7 7 7 7 7 6 5 5 5 4 4 5 6 5 4 4 4 4 3 3 4 5 5
5 4 3 3 3 4 5 4 3 4 4 5 5 5 6 6 6 6 7 7 6 7 7 7 7 7 6 6 5 6 5 5 6 7 5 5 6 6 5 5 5 6 5
6 5 5 4 4 4 4 4 4 4 4 5 5 5 6 6 6 6 6 7 7 7 7 7 7 7 7 6 6 6 5 7 5 6 6 5 5 5 5 5 6 4 6
5 4 4 4 4 4 4 4 4 4 5 5 6 6 6 7 7 7 6 6 6 7 7 7 7 8 8 7 7 6 6 6 6 6 6 5 5 6 5 4 4 4 5
4 4 4 4 3 3 4 4 4 5 6 5 5 6 6 7 7 5 4 7 6 6 7 7 8 10 10 8 8 6 6 5 5 6 6 5 5 4 4 3 4 3 4
5 4 4 3 4 4 4 5 5 5 5 5 6 7 7 8 3 2 4 6 6 7 8 8 9 10 12 14 15 13 11 8 7 6 6 6 6 5 4 4 3 3 3
6 5 5 4 4 4 5 4 4 5 5 5 6 6 7 7 8 8 8 6 8 8 8 8 10 11 9 6 9 14 14 16 14 9 9 9 8 6 5 5 5 4 4
7 7 6 5 5 4 4 5 4 4 5 5 6 7 7 8 8 9 9 8 9 9 9 9 9 9 11 8 7 7 7 9 11 11 11 11 10 7 6 6 6 6 5
8 7 6 5 5 4 5 5 4 4 5 6 7 7 7 7 8 9 9 6 7 9 9 10 9 9 10 9 7 7 7 7 11 14 14 14 15 13 7 4 5 5 6
7 6 5 4 5 5 5 5 5 5 6 7 7 7 7 7 8 10 11 7 7 7 7 7 10 9 7 6 6 7 8 7 8 8 8 10 11 12 13 9 7 7 6
5 5 5 5 5 6 6 5 5 6 7 7 8 8 8 9 9 11 12 7 7 7 7 6 4 4 5 7 7 7 8 8 7 7 7 7 7 7 8 9 9 9 8
4 5 5 5 6 6 5 5 6 7 7 8 8 9 7 7 8 9 12 13 9 7 7 7 4 3 5 7 7 9 11 8 7 7 7 7 7 7 7 8 9 11 9
5 5 5 5 5 5 6 7 7 7 7 7 6 6 5 3 3 8 11 12 13 8 7 9 10 10 10 9 14 15 11 8 8 8 9 8 7 6 6 6 7 8 8
5 5 5 6 7 7 7 7 7 7 6 6 5 5 4 4 2 1 3 5 8 9 8 9 12 14 13 12 11 9 8 9 9 8 8 7 6 5 6 5 5 5 6
5 5 6 8 8 7 8 8 8 7 7 7 5 5 5 5 2 2 2 4 4 3 4 6 8 8 7 7 7 7 7 7 9 9 8 7 6 6 5 5 5 5 6
5 6 7 7 7 7 6 7 11 13 12 14 13 10 7 8 6 7 7 7 6 4 4 7 8 8 8 7 6 6 7 7 7 7 7 7 6 6 6 5 5 6 6
6 6 7 7 7 7 7 7 7 7 11 14 15 15 15 13 11 10 9 7 8 6 6 8 9 9 8 7 6 6 7 6 6 6 7 7 6 6 6 6 6 6 6
7 8 9 8 8 8 8 8 7 6 6 6 10 16 16 16 15 14 9 4 7 8 8 9 9 8 7 6 6 6 6 5 5 6 6 7 6 6 6 6 6 7 6
8 8 8 9 9 9 9 9 8 7 6 5 5 5 11 13 13 12 7 6 9 9 7 7 7 7 6 5 5 6 6 5 6 5 6 7 6 7 7 7 6 8 7
8 12 11 9 10 9 8 8 8 6 6 5 5 5 3 5 5 6 7 8 9 8 8 7 6 6 5 5 5 5 6 5 5 6 6 6 6 6 7 8 7 6 6
10 10 11 9 9 9 8 8 7 6 5 5 5 5 4 5 6 6 4 5 6 6 5 5 6 6 5 5 5 6 7 5 5 5 5 5 6 6 6 6 7 7 6
10 11 10 9 8 8 8 7 7 7 6 7 5 5 5 6 6 5 3 3 3 3 4 4 6 5 5 4 4 4 5 5 5 5 5 5 5 5 6 6 6 6 7
11 12 11 10 9 8 8 8 7 6 5 5 5 4 2 3 4 3 3 2 3 3 3 4 5 5 4 3 3 4 4 4 4 4 4 4 4 5 5 6 7 7 7
13 13 12 10 10 9 7 6 5 5 5 4 3 2 2 3 3 3 2 2 3 3 3 4 5 6 6 4 2 2 3 4 6 5 5 5 4 4 4 5 6 8 8
13 11 10 9 9 8 7 6 5 4 4 3 2 2 3 3 3 3 2 2 3 3 4 4 4 4 5 4 4 3 4 5 5 6 6 5 5 5 5 6 5 6 7
12 11 10 8 8 7 7 6 4 4 4 3 2 2 3 3 2 2 2 2 3 3 3 4 5 5 5 3 4 4 3 4 5 6 6 6 6 4 4 3 5 5 7
Wind_Direction
197 193 210 227 254 265 261 260 263 267 274 275 275 275 276 275 271 264 262 264 262 261 263 262 256 254 258 268 273 271 265 260 268 275 275 280 279 272 259 244 255 241 238
190 183 197 212 230 245 261 268 273 271 269 272 271 273 275 277 274 271 269 273 270 267 264 263 264 263 253 252 260 267 269 269 268 273 275 273 269 264 249 236 245 248 242
180 181 196 210 227 240 255 266 269 270 273 276 276 275 275 275 274 273 270 269 269 271 269 266 263 262 262 253 252 258 266 269 266 266 270 264 261 260 260 250 246 241 251
179 190 202 213 227 241 252 259 264 268 272 271 270 271 272 273 273 271 272 274 274 273 271 268 265 260 258 256 256 251 255 263 269 269 267 264 261 255 249 241 248 234 240
182 206 215 217 225 238 248 254 257 262 272 275 277 277 275 274 272 281 288 287 291 291 285 278 272 266 257 253 257 254 260 261 266 267 267 266 262 260 261 253 252 249 239
192 215 220 223 234 242 248 251 255 259 268 272 275 278 278 282 292 278 270 291 289 285 282 279 279 272 259 245 242 243 244 251 259 265 271 271 275 284 288 285 278 269 264
194 213 222 225 234 243 260 266 269 271 272 272 272 273 274 275 264 249 245 261 273 274 274 276 278 279 284 267 246 241 242 243 241 247 260 265 271 280 297 298 291 284 275
200 210 219 225 234 239 249 259 262 268 273 275 274 274 272 272 261 239 238 249 266 267 266 265 265 268 273 272 272 262 249 245 238 236 241 250 255 260 264 272 275 279 270
207 209 216 222 232 241 249 255 261 263 267 269 272 268 268 268 253 232 228 256 264 269 268 269 267 264 262 254 255 260 262 260 258 249 235 236 239 244 245 261 267 265 267
211 208 210 216 228 242 250 255 262 263 267 271 270 269 272 273 257 231 219 248 267 274 275 273 272 268 261 240 247 258 263 265 272 277 260 250 246 243 234 230 240 249 255
210 208 209 215 223 234 240 242 250 259 265 268 272 271 266 261 252 229 216 234 259 276 284 287 288 279 251 240 246 257 263 274 279 274 268 256 246 240 234 225 220 227 236
209 217 220 220 236 247 238 243 245 250 259 260 261 264 261 254 242 227 213 219 241 265 275 281 286 278 258 254 252 255 260 266 264 263 260 254 244 239 235 228 221 219 221
220 225 229 235 235 243 249 252 252 248 252 258 263 269 271 269 238 217 211 220 231 243 264 278 287 277 268 260 251 250 252 250 249 251 253 253 247 241 238 234 230 225 222
227 229 233 239 242 241 238 248 253 254 256 262 269 277 286 287 280 199 213 230 237 243 257 273 271 262 253 255 261 247 233 236 240 246 251 253 250 245 239 231 230 221 221
232 241 247 248 248 246 243 241 244 244 244 248 260 267 274 279 266 187 266 286 297 328 321 287 278 272 260 250 245 243 236 230 234 239 246 249 249 246 241 230 227 223 219
246 250 256 259 258 256 256 258 240 237 239 231 233 241 254 254 246 235 243 253 261 266 275 271 273 273 270 266 260 256 246 239 237 234 235 241 244 243 240 232 226 224 222
258 266 269 271 272 271 269 268 269 251 236 234 236 238 239 249 254 254 256 262 262 233 243 259 264 267 268 267 265 262 257 246 237 237 236 237 239 239 236 232 225 221 220
269 269 266 265 265 266 267 268 266 264 261 250 235 233 236 240 247 252 251 263 263 232 238 252 261 266 267 266 266 264 260 252 241 234 234 235 232 234 234 231 224 218 217
283 276 272 272 270 270 270 269 266 265 263 264 270 239 226 236 244 249 228 234 256 266 265 265 265 269 270 268 268 265 259 250 243 236 235 233 229 228 230 230 224 220 215
286 278 274 277 276 273 270 270 268 267 266 268 274 276 242 220 237 232 213 224 242 257 267 275 277 275 276 272 266 264 263 254 246 239 236 232 228 226 228 228 224 217 211
301 296 282 273 272 272 273 274 274 272 272 273 270 270 263 266 269 266 245 228 241 261 272 279 282 281 276 272 266 263 265 263 254 244 238 232 228 226 225 225 222 216 208
308 303 298 288 281 277 279 279 274 271 275 280 275 264 228 249 269 275 279 279 281 278 285 288 290 289 287 282 280 275 273 272 267 257 245 238 230 229 226 222 219 211 205
310 305 301 297 291 281 272 271 272 274 275 274 274 278 261 267 275 281 291 308 310 301 301 297 294 296 302 305 301 296 294 299 296 280 265 253 242 234 229 223 216 204 201
308 301 297 297 297 293 292 286 282 283 282 283 289 300 301 294 292 294 307 316 308 307 313 309 302 308 315 320 323 339 347 334 321 307 295 276 261 249 238 230 221 206 201
305 304 305 305 303 300 301 299 294 293 291 292 303 305 292 287 295 296 303 307 311 313 320 316 308 313 320 335 347 357 350 337 327 320 304 286 270 256 244 232 224 211 199
307 308 311 314 312 312 309 303 297 293 295 303 305 297 300 307 311 323 333 334 325 323 327 318 322 334 341 346 353 351 337 327 319 310 297 282 272 264 254 240 230 216 198